[[{"header":{"parameterUnit":"m.s-1","parameterCategory":1,"la1":30.2991,"la2":30.254,"lo1":-89.0895,"lo2":-89.0444,"dy":0.0017,"dx":0.0017,"nx":28,"ny":28,"refTime":"2025-08-15T09:00:00:Z","depth":0,"parameterNumber":2,"parameterNumberName":"U-component_of_WINDS"},"data":[0,0,0,0,0,0,0,0,0,0,0,0,0,0,0,0,0,0,0,0,0,0,0,0,0,0,0,0,0,0,0,0,0,0,0,0,0,0,0,0,0,0,0,0,0,0,0,0,0,0,0,0,0,0,0,0,0,0,1.3634,1.3633,0,1.3554,1.3554,1.3553,1.3449,1.3447,1.3446,1.3444,1.3361,1.336,1.3359,0,0,0,0,0,0,0,0,0,0,0,0,0,1.3696,1.3695,1.3634,1.3633,1.3632,1.3555,1.3553,1.3552,1.3449,1.3447,1.3445,1.3443,1.3361,1.336,1.3359,0,0,0,0,0,0,0,0,0,0,0,0,0,1.3648,1.3695,1.3634,1.3571,1.3565,1.3555,1.3553,1.3552,1.345,1.3447,1.3445,1.3442,1.3361,1.336,1.3359,1.3404,0,0,1.3356,1.3356,0,0,0,0,0,0,0,0,1.3651,1.3646,1.3581,1.3575,1.3568,1.3509,1.3545,1.3502,1.345,1.3493,1.3444,1.3441,1.3412,1.3407,1.3397,1.34,1.3396,1.3356,1.3355,1.3355,1.3355,0,0,0,0,0,0,0,1.3654,1.3649,1.3602,1.3581,1.3573,1.3547,1.3537,1.3536,1.3468,1.3489,1.3482,1.3474,1.3408,1.3398,1.3394,1.3395,1.3356,1.3355,1.3355,1.3354,1.3432,1.3435,0,0,0,0,0,0,1.3667,1.3652,1.3605,1.36,1.3604,1.3548,1.3537,1.3531,1.3467,1.3455,1.3476,1.3469,1.3401,1.3396,1.3391,1.344,1.3355,1.3354,1.3354,1.343,1.3433,1.3436,0,0,0,0,0,0,1.3669,1.3664,1.3608,1.3624,1.3615,1.3549,1.3543,1.353,1.3521,1.3457,1.3445,1.3479,1.3399,1.3392,1.3402,1.3436,1.3354,1.3353,1.3427,1.3431,1.3434,1.3538,0,0,0,0,0,0,1.3671,1.3665,1.3681,1.3625,1.3614,1.3621,1.3545,1.3531,1.352,1.351,1.3457,1.3445,1.3397,1.3404,1.3401,1.3433,1.3352,1.3423,1.3428,1.3433,1.3531,1.3545,1.3557,0,0,0,0,0,1.3674,1.3713,1.3683,1.3678,1.3633,1.3623,1.3617,1.356,1.3523,1.3539,1.3498,1.3447,1.3433,1.3406,1.3402,1.3434,1.3421,1.3427,1.3433,1.3525,1.3542,1.3557,0,0,0,0,0,0,1.3773,1.3704,1.367,1.3692,1.3664,1.3605,1.3623,1.3579,1.3561,1.3552,1.3483,1.3472,1.349,1.3463,1.3434,1.3474,1.3419,1.3425,1.3491,1.3507,1.3519,1.3525,1.3351,0,0,0,0,0,1.3798,1.3796,1.3735,1.3761,1.3749,1.3689,1.3682,1.3641,1.3609,1.3597,1.3557,1.3527,1.3516,1.351,1.3496,1.3527,1.3515,1.3548,1.356,1.3571,1.3576,1.3592,1.3606,1.3455,1.3455,1.3455,0,0,1.3849,1.3811,1.3813,1.378,1.3753,1.3752,1.3679,1.3681,1.3679,1.3596,1.3603,1.3574,1.3536,1.3557,1.3564,1.3535,1.3616,1.3579,1.3588,1.3587,1.36,1.3614,1.3627,1.3459,1.3459,1.3458,0,0,1.394,1.3912,1.393,1.3906,1.3867,1.3828,1.3833,1.3781,1.3758,1.3765,1.3703,1.37,1.3682,1.3658,1.3644,1.3731,1.3683,1.3728,1.3794,1.3811,1.3822,1.3833,1.3864,1.3876,1.3734,1.3734,1.3734,0,1.4008,1.4004,1.3945,1.3951,1.3939,1.3865,1.3884,1.3863,1.3822,1.3815,1.3783,1.3761,1.373,1.3745,1.3767,1.3758,1.3761,1.3733,1.3826,1.3835,1.3844,1.3873,1.3885,1.374,1.3739,1.3738,1.3738,0,1.4089,1.4088,1.4108,1.4072,1.4061,1.4074,1.4017,1.4014,1.3975,1.3939,1.3947,1.3909,1.3886,1.3887,1.3848,1.3898,1.3881,1.3839,1.3781,1.3865,1.3891,1.3902,1.3748,1.3746,1.3744,1.3743,0,0,1.4239,1.4172,1.418,1.4164,1.4117,1.4115,1.4125,1.4104,1.4103,1.4078,1.4085,1.4073,1.4035,1.4019,1.3977,1.3991,1.4063,1.3947,1.3945,1.397,1.4116,1.4148,1.4161,1.4032,1.4034,1.4036,1.4119,0,1.4322,1.4335,1.4283,1.431,1.4308,1.424,1.4249,1.4222,1.4189,1.4183,1.4147,1.414,1.4089,1.4079,1.4091,1.4052,1.4091,1.4045,1.4037,1.4038,1.4048,1.4175,1.4208,1.4288,1.4129,1.413,1.4132,0,1.4419,1.4401,1.4428,1.4382,1.4379,1.4388,1.4366,1.4362,1.433,1.4305,1.4289,1.4242,1.4249,1.4196,1.4204,1.4175,1.4169,1.415,1.4151,1.4147,1.4089,1.4174,1.4312,1.4325,1.4147,1.4146,1.4145,0,1.4526,1.4508,1.4522,1.451,1.4457,1.4465,1.4443,1.4409,1.4401,1.4382,1.4376,1.4358,1.4348,1.4335,1.4285,1.4251,1.43,1.4242,1.428,1.4281,1.4292,1.4292,1.4431,1.4289,1.4289,1.4289,1.4289,0,1.4623,1.4642,1.457,1.4579,1.4598,1.454,1.4561,1.4532,1.4503,1.4505,1.4445,1.4449,1.4382,1.4378,1.4339,1.4352,1.4348,1.4329,1.4318,1.4334,1.4336,1.4328,1.4321,1.4292,1.4291,1.4291,1.429,0,1.4745,1.4697,1.4708,1.4658,1.4646,1.4663,1.462,1.4626,1.4591,1.4595,1.4592,1.4537,1.4529,1.4478,1.4459,1.4432,1.446,1.4439,1.4471,1.4464,1.4505,1.4502,1.4642,1.4658,1.4508,1.4509,1.4511,0,1.481,1.4823,1.4775,1.4773,1.4754,1.4751,1.4743,1.4686,1.468,1.4647,1.4657,1.4645,1.4632,1.4624,1.4582,1.4567,1.4545,1.4595,1.4542,1.4558,1.4545,1.4545,1.4546,1.4606,1.4608,1.461,1.4611,0,1.493,1.4906,1.4897,1.4881,1.4873,1.4857,1.4837,1.4839,1.4776,1.4773,1.4765,1.4756,1.4737,1.4726,1.4705,1.4682,1.4637,1.4629,1.4636,1.4652,1.4671,1.4662,1.4502,1.4625,1.4624,1.4623,1.4622,1.4621,1.5025,1.5034,1.5003,1.4995,1.4975,1.4958,1.4962,1.4929,1.4921,1.4902,1.487,1.4867,1.4837,1.4804,1.4785,1.4783,1.4756,1.4767,1.477,1.4773,1.4782,1.4672,1.4779,1.4778,1.4778,1.4777,1.4777,0,1.5142,1.5119,1.5113,1.5088,1.5082,1.5042,1.5018,1.5016,1.5015,1.4991,1.4981,1.4973,1.4963,1.4922,1.4907,1.4913,1.4892,1.4911,1.491,1.4905,1.4807,1.4801,1.4929,1.4929,1.4929,1.4929,1.4929,1.4929,1.5202,1.5216,1.5189,1.5193,1.517,1.5168,1.5158,1.5143,1.5124,1.5118,1.511,1.5084,1.5053,1.5036,1.5026,1.5014,1.5011,1.5037,1.5019,1.4927,1.4912,1.4898,1.4893,1.5037,1.5037,1.5117,1.5118,1.5119]},{"header":{"parameterUnit":"m.s-1","parameterCategory":1,"la1":30.2991,"la2":30.254,"lo1":-89.0895,"lo2":-89.0444,"dy":0.0017,"dx":0.0017,"nx":28,"ny":28,"refTime":"2025-08-15T09:00:00:Z","depth":0,"parameterNumber":3,"parameterNumberName":"V-component_of_WINDS"},"data":[0,0,0,0,0,0,0,0,0,0,0,0,0,0,0,0,0,0,0,0,0,0,0,0,0,0,0,0,0,0,0,0,0,0,0,0,0,0,0,0,0,0,0,0,0,0,0,0,0,0,0,0,0,0,0,0,0,0,-2.4665,-2.4667,0,-2.486,-2.4862,-2.4864,-2.4923,-2.4922,-2.4921,-2.492,-2.5121,-2.5127,-2.5133,0,0,0,0,0,0,0,0,0,0,0,0,0,-2.4342,-2.4348,-2.4665,-2.4667,-2.467,-2.4859,-2.4862,-2.4865,-2.4923,-2.4921,-2.492,-2.4919,-2.5119,-2.5126,-2.5134,0,0,0,0,0,0,0,0,0,0,0,0,0,-2.4504,-2.435,-2.4664,-2.4721,-2.4728,-2.4859,-2.4862,-2.4866,-2.4923,-2.4921,-2.492,-2.4919,-2.5117,-2.5126,-2.5135,-2.5224,0,0,-2.5164,-2.5168,0,0,0,0,0,0,0,0,-2.4495,-2.4516,-2.471,-2.4718,-2.4726,-2.4865,-2.4822,-2.4986,-2.4923,-2.4849,-2.492,-2.4918,-2.5037,-2.5053,-2.5093,-2.5233,-2.5242,-2.5165,-2.5171,-2.5175,-2.5177,0,0,0,0,0,0,0,-2.4484,-2.4508,-2.4742,-2.4713,-2.4723,-2.4737,-2.4758,-2.4854,-2.4949,-2.4855,-2.486,-2.4882,-2.5041,-2.5084,-2.5098,-2.5245,-2.5165,-2.5173,-2.5179,-2.5182,-2.5466,-2.5468,0,0,0,0,0,0,-2.4463,-2.4498,-2.4736,-2.4748,-2.4604,-2.4744,-2.4768,-2.4822,-2.4948,-2.4966,-2.4883,-2.4884,-2.5068,-2.5087,-2.5106,-2.5218,-2.5174,-2.5183,-2.5189,-2.5464,-2.5467,-2.5469,0,0,0,0,0,0,-2.4456,-2.4483,-2.4728,-2.4624,-2.4657,-2.4751,-2.4811,-2.4827,-2.487,-2.497,-2.4987,-2.491,-2.5068,-2.5092,-2.5194,-2.5226,-2.5188,-2.5196,-2.5462,-2.5465,-2.5468,-2.5444,0,0,0,0,0,0,-2.4446,-2.4481,-2.4515,-2.4625,-2.4662,-2.4813,-2.4813,-2.4832,-2.4885,-2.4888,-2.4999,-2.5016,-2.5069,-2.5179,-2.5203,-2.5239,-2.5204,-2.546,-2.5463,-2.5467,-2.5442,-2.5445,-2.5448,0,0,0,0,0,-2.4434,-2.4501,-2.4517,-2.4545,-2.4707,-2.4814,-2.4836,-2.4895,-2.4888,-2.4924,-2.4987,-2.5012,-2.5217,-2.5189,-2.5216,-2.5255,-2.5458,-2.5462,-2.5466,-2.5441,-2.5445,-2.5448,0,0,0,0,0,0,-2.4395,-2.4517,-2.4536,-2.464,-2.4716,-2.4824,-2.4872,-2.4897,-2.4978,-2.4978,-2.5048,-2.5073,-2.5169,-2.5222,-2.5188,-2.5347,-2.5339,-2.5348,-2.531,-2.5314,-2.5317,-2.5304,-2.5211,0,0,0,0,0,-2.4398,-2.4474,-2.4577,-2.4659,-2.4696,-2.4777,-2.4826,-2.4864,-2.4947,-2.498,-2.5051,-2.513,-2.5213,-2.5266,-2.5347,-2.5448,-2.5474,-2.5488,-2.5491,-2.5493,-2.5502,-2.556,-2.5568,-2.5482,-2.5482,-2.5482,0,0,-2.4406,-2.4482,-2.4526,-2.4653,-2.4717,-2.4795,-2.4804,-2.4886,-2.4945,-2.4992,-2.5093,-2.5147,-2.524,-2.5342,-2.539,-2.5389,-2.5531,-2.5499,-2.5499,-2.5508,-2.5565,-2.5573,-2.558,-2.5485,-2.5485,-2.5484,0,0,-2.4461,-2.4525,-2.4601,-2.4664,-2.476,-2.4813,-2.483,-2.4934,-2.4972,-2.5073,-2.511,-2.518,-2.5321,-2.5386,-2.5437,-2.5512,-2.5538,-2.5536,-2.5554,-2.5609,-2.5616,-2.5622,-2.5651,-2.566,-2.5544,-2.5544,-2.5544,0,-2.446,-2.4578,-2.4637,-2.4717,-2.4772,-2.4816,-2.4894,-2.4952,-2.5069,-2.5106,-2.5102,-2.5279,-2.5344,-2.5462,-2.548,-2.5519,-2.5542,-2.5526,-2.561,-2.5617,-2.5624,-2.5652,-2.5662,-2.5543,-2.5543,-2.5544,-2.5544,0,-2.4572,-2.4653,-2.4703,-2.4815,-2.4874,-2.4952,-2.5023,-2.5076,-2.5108,-2.5161,-2.5263,-2.5342,-2.5441,-2.547,-2.5503,-2.5592,-2.5589,-2.5596,-2.559,-2.5631,-2.5658,-2.5669,-2.5542,-2.5543,-2.5543,-2.5543,0,0,-2.4613,-2.4753,-2.477,-2.4821,-2.4928,-2.4993,-2.5072,-2.5167,-2.5212,-2.529,-2.5359,-2.5475,-2.5482,-2.554,-2.558,-2.5628,-2.5684,-2.563,-2.5633,-2.5639,-2.5788,-2.5784,-2.5796,-2.5699,-2.5702,-2.5704,-2.5781,0,-2.4683,-2.4827,-2.4881,-2.4999,-2.5075,-2.5116,-2.5185,-2.5258,-2.5309,-2.5381,-2.5436,-2.5518,-2.552,-2.5556,-2.5605,-2.5667,-2.5715,-2.5661,-2.5766,-2.5769,-2.5745,-2.581,-2.5807,-2.5876,-2.5792,-2.5794,-2.5795,0,-2.4786,-2.4865,-2.499,-2.5087,-2.5121,-2.5182,-2.5273,-2.534,-2.5423,-2.5457,-2.5519,-2.5555,-2.564,-2.5624,-2.5742,-2.5704,-2.5749,-2.5786,-2.579,-2.5805,-2.5787,-2.583,-2.59,-2.5911,-2.5813,-2.5811,-2.581,0,-2.4806,-2.4942,-2.5035,-2.5077,-2.5192,-2.5234,-2.5283,-2.5365,-2.5418,-2.5496,-2.5532,-2.5619,-2.5667,-2.5734,-2.5792,-2.5776,-2.5905,-2.5894,-2.5936,-2.5935,-2.5965,-2.5963,-2.6047,-2.5988,-2.5988,-2.5988,-2.5988,0,-2.4882,-2.4957,-2.5046,-2.5103,-2.5189,-2.5248,-2.5331,-2.5384,-2.5455,-2.5523,-2.5563,-2.5626,-2.5697,-2.577,-2.5815,-2.5906,-2.5927,-2.5957,-2.5969,-2.5956,-2.5952,-2.5989,-2.5987,-2.5991,-2.599,-2.599,-2.5989,0,-2.492,-2.4982,-2.5086,-2.5184,-2.5211,-2.527,-2.5354,-2.5412,-2.5461,-2.5547,-2.5571,-2.565,-2.5737,-2.5801,-2.5913,-2.5943,-2.6042,-2.6052,-2.6014,-2.6021,-2.606,-2.6056,-2.6173,-2.6192,-2.6117,-2.6118,-2.6118,0,-2.4966,-2.5025,-2.5129,-2.5177,-2.5227,-2.5303,-2.5357,-2.5417,-2.5471,-2.5569,-2.5614,-2.5703,-2.5779,-2.5915,-2.5983,-2.6069,-2.6084,-2.6118,-2.6097,-2.6082,-2.6087,-2.6084,-2.6091,-2.6123,-2.6123,-2.6124,-2.6124,0,-2.5042,-2.5069,-2.5145,-2.5231,-2.5294,-2.5365,-2.5437,-2.5474,-2.5546,-2.5605,-2.5693,-2.5751,-2.5865,-2.5953,-2.6045,-2.6096,-2.6123,-2.6129,-2.6144,-2.6133,-2.6109,-2.6125,-2.6026,-2.6127,-2.6127,-2.6127,-2.6127,-2.6126,-2.5088,-2.5142,-2.5224,-2.5307,-2.5366,-2.5431,-2.549,-2.5546,-2.5621,-2.5718,-2.5748,-2.584,-2.5919,-2.6046,-2.6097,-2.617,-2.6169,-2.619,-2.6196,-2.6201,-2.6201,-2.6094,-2.6187,-2.6187,-2.6186,-2.6186,-2.6186,0,-2.5168,-2.5221,-2.5297,-2.5395,-2.546,-2.5476,-2.5555,-2.5609,-2.5689,-2.5761,-2.5833,-2.5934,-2.6019,-2.6092,-2.618,-2.6225,-2.6239,-2.6246,-2.6246,-2.6257,-2.6196,-2.6176,-2.6233,-2.6233,-2.6233,-2.6233,-2.6233,-2.6233,-2.5218,-2.5311,-2.5347,-2.5469,-2.5522,-2.5612,-2.5656,-2.5716,-2.5774,-2.5885,-2.5956,-2.6002,-2.6074,-2.6167,-2.6246,-2.6265,-2.6297,-2.6302,-2.6324,-2.6267,-2.6261,-2.6256,-2.6238,-2.6307,-2.6307,-2.6379,-2.638,-2.6381]}]]